This demonstration page uses our WeatherBlox Daily Observations layout. Learn more.

Left ArrowRight Arrow

Hourly Observations for June 7, 2021

Temp ( °F °C ) Dew Point ( °F °C ) Humidity (%) Winds ( mph kmh ) Pressure ( in mb ) Visibility ( mi km ) Precip ( " mm )
12:15 am 00:15 Partly Cloudy 73 22.8 70 21.1 90 90 Calm 30.07 1018 10 16 0.00 0.00
12:53 am 00:53 Mostly Clear 73 22.8 70 21.1 90 90 SSE 5 7 30.06 1018 10 16 0.00 0.00
1:53 am 01:53 Mostly Clear 72 22.2 69 20.6 91 91 Calm 30.06 1018 10 16 0.00 0.00
2:53 am 02:53 Mostly Clear 72 22.2 69 20.6 91 91 WSW 3 6 30.05 1018 10 16 0.00 0.00
3:53 am 03:53 Mostly Clear 72 22.2 69 20.6 91 91 SSE 3 6 30.04 1017 10 16 0.00 0.00
4:53 am 04:53 Partly Cloudy 72 22.2 69 20.6 91 91 Calm 30.03 1017 10 16 0.00 0.00
5:01 am 05:01 Mostly Cloudy 72 22.2 68 20 87 87 VRB 3 6 30.04 1017 10 16 0.00 0.00
5:35 am 05:35 Partly Cloudy 72 22.2 69 20.6 91 91 SSE 5 7 30.04 1017 10 16 0.00 0.00
5:53 am 05:53 Mostly Clear 72 22.2 69 20.6 91 91 SSE 8 13 30.04 1017 10 16 0.00 0.00
6:24 am 06:24 Mostly Clear 72 22.2 69 20.6 91 91 S 6 9 30.05 1018 10 16 0.00 0.00
6:53 am 06:53 Mostly Cloudy 72 22.2 69 20.6 91 91 S 5 7 30.07 1018 10 16 0.00 0.00
7:04 am 07:04 Cloudy 72 22.2 69 20.6 91 91 S 5 7 30.08 1019 10 16 0.00 0.00
7:53 am 07:53 Cloudy with Light Rain 72 22.2 70 21.1 94 94 undefined N/A 30.10 1019 10 16 0.03 0.76
8:40 am 08:40 Cloudy with Light Rain 73 22.8 71 21.7 94 94 SSE 5 7 30.10 1019 8 13 0.05 1.27
8:53 am 08:53 Mostly Cloudy with Light Rain 72 22.2 71 21.7 97 97 SSE 5 7 30.11 1020 8 13 0.06 1.52
9:25 am 09:25 Mostly Cloudy with Light Rain 73 22.8 72 22.2 96 96 Calm 30.10 1019 10 16 0.01 0.25
9:53 am 09:53 Mostly Cloudy 74 23.3 71 21.7 91 91 S 5 7 30.11 1020 10 16 0.01 0.25
10:00 am 10:00 Mostly Cloudy 74 23.3 71 21.7 91 91 S 6 9 30.11 1020 10 16 0.00 0.00
10:21 am 10:21 Cloudy 75 23.9 72 22.2 90 90 S 5 7 30.11 1020 10 16 0.00 0.00
10:53 am 10:53 Mostly Cloudy 76 24.4 70 21.1 82 82 S 9 15 30.12 1020 10 16 0.00 0.00
11:53 am 11:53 Mostly Cloudy 79 26.1 71 21.7 77 77 S 9 15 30.12 1020 10 16 0.00 0.00
12:00 pm 12:00 Mostly Cloudy 80 26.7 71 21.7 74 74 SSE 8 13 30.11 1020 10 16 0.00 0.00
12:18 pm 12:18 Cloudy 80 26.7 70 21.1 71 71 S 8 13 30.10 1019 10 16 0.00 0.00
12:34 pm 12:34 Cloudy 80 26.7 70 21.1 71 71 S 10 17 30.10 1019 10 16 0.00 0.00
12:41 pm 12:41 Cloudy 80 26.7 70 21.1 71 71 S 8 13 30.10 1019 10 16 0.00 0.00
12:53 pm 12:53 Cloudy 80 26.7 71 21.7 74 74 VRB 6 9 30.10 1019 10 16 0.00 0.00
12:56 pm 12:56 Cloudy 80 26.7 71 21.7 74 74 S 9 15 30.09 1019 10 16 0.00 0.00
1:21 pm 13:21 Cloudy with Nearby Thunderstorms 79 26.1 72 22.2 79 79 VRB 3 6 30.09 1019 3 4 0.06 1.52
1:26 pm 13:26 Mostly Cloudy with Nearby Thunderstorms 77 25 72 22.2 85 85 Calm 30.08 1019 10 16 0.09 2.29
1:53 pm 13:53 Cloudy with Light Rain 77 25 73 22.8 88 88 S 3 6 30.10 1019 8 13 0.09 2.29
2:53 pm 14:53 Partly Cloudy 80 26.7 73 22.8 79 79 Calm 30.06 1018 10 16 0.05 1.27
3:53 pm 15:53 Mostly Cloudy 82 27.8 71 21.7 69 69 undefined N/A 30.06 1018 10 16 0.00 0.00
4:53 pm 16:53 Partly Cloudy 81 27.2 72 22.2 74 74 SSE 6 9 30.04 1017 10 16 0.00 0.00
5:53 pm 17:53 Partly Cloudy 80 26.7 73 22.8 79 79 SSE 6 9 30.04 1017 10 16 0.00 0.00
6:53 pm 18:53 Sunny 78 25.6 70 21.1 76 76 S 5 7 30.04 1017 10 16 0.00 0.00
7:53 pm 19:53 Sunny 78 25.6 69 20.6 74 74 SSW 6 9 30.05 1018 10 16 0.00 0.00
8:53 pm 20:53 Clear 77 25 70 21.1 79 79 Calm 30.05 1018 10 16 0.00 0.00
9:53 pm 21:53 Clear 75 23.9 71 21.7 88 88 S 5 7 30.09 1019 10 16 0.00 0.00
10:53 pm 22:53 Cloudy 75 23.9 72 22.2 90 90 S 3 6 30.13 1020 10 16 0.00 0.00
11:53 pm 23:53 Mostly Cloudy 74 23.3 70 21.1 88 88 S 6 9 30.13 1020 10 16 0.00 0.00

Powered by AerisWeather